Orbital Elements at Epoch 2459200.5 (2020-Dec-17.0) TDB
Reference: JPL 27 (heliocentric ecliptic J2000)
Element | Value | Uncertainty (1-sigma) | Units |
e | .1411415910059087 | 4.2035e-08 | |
a | 2.587149064431196 | 9.8464e-09 | au |
q | 2.221994729307928 | 1.1157e-07 | au |
i | 6.182975246533019 | 3.0272e-06 | deg |
node | 95.61454939293996 | 4.3638e-05 | deg |
peri | 312.7750603997222 | 4.5803e-05 | deg |
M | 349.0543666354458 | 1.2574e-05 | deg |
tp | 2459246.713514918250 (2021-Feb-01.21351492) | 5.3055e-05 | TDB |
period | 1519.954562377919 4.16 | 8.6772e-06 2.376e-08 | d yr |
n | .2368491854366961 | 1.3521e-09 | deg/d |
Q | 2.952303399554463 | 1.1236e-08 | au |
|
| | Orbit Determination Parameters
Additional Information
|